Volver al catálogo

STARLINK-31235

ActivoComunicacionesVLEO
NORAD 59038·PAYLOAD·🇺🇸 United States

Lanzado Feb 25, 2024 desde Cape Canaveral Space Force Station

Loading…

Próximos Pases (próximas 24 horas)

TLE

ActualizadoSource: CelesTrak SupGP

Época: Sep 14, 2026, 22:24 UTC

1 59038C 24038R   26257.93381944  .00026512  00000+0  96023-3 0  2570
2 59038  43.0023  34.7600 0001461 272.4251   3.2598 15.27566079    10

Sigue STARLINK-31235 en tiempo real con AllMySat

Download on the App Store